This is the latest recevied weather packets stored in our database for station/object KD8BMB. If no packets are shown the sender has not sent any weather packets the latest 10 day(s).
| Time | Temp. | Humidity | Pressure | Rain* | Wind** | Luminosity | Snow |
|---|---|---|---|---|---|---|---|
| 1777671709 | 6.67° C | 67% | 1014.8 hPa | 0 mm | - | 129 W/m² | - |
| 1777671406 | 7.22° C | 66% | 1014.9 hPa | 0 mm | - | 112 W/m² | - |
| 1777671102 | 6.67° C | 67% | 1014.9 hPa | 0 mm | - | 107 W/m² | - |
| 1777670799 | 6.67° C | 67% | 1014.9 hPa | 0 mm | - | 102 W/m² | - |
| 1777670496 | 7.22° C | 67% | 1014.8 hPa | 0 mm | - | 90 W/m² | - |
| 1777670192 | 7.22° C | 67% | 1014.8 hPa | 0 mm | - | 79 W/m² | - |
| 1777669890 | 7.22° C | 65% | 1014.7 hPa | 0 mm | - | 74 W/m² | - |
| 1777669586 | 7.22° C | 62% | 1014.7 hPa | 0 mm | - | 84 W/m² | - |
| 1777669283 | 7.22° C | 60% | 1014.6 hPa | 0 mm | - | 93 W/m² | - |
| 1777668980 | 7.22° C | 62% | 1014.7 hPa | 0 mm | - | 107 W/m² | - |
| 1777668677 | 7.22° C | 62% | 1014.6 hPa | 0 mm | - | 113 W/m² | - |
| 1777668374 | 7.22° C | 61% | 1014.7 hPa | 0 mm | - | 91 W/m² | - |
| 1777668069 | 7.78° C | 62% | 1014.4 hPa | 0 mm | - | 107 W/m² | - |
| 1777667766 | 7.78° C | 61% | 1014.6 hPa | 0 mm | - | 158 W/m² | - |
| 1777667464 | 7.78° C | 63% | 1014.7 hPa | 0 mm | - | 209 W/m² | - |
| 1777667161 | 7.22° C | 63% | 1014.9 hPa | 0 mm | - | 159 W/m² | - |
| 1777666857 | 7.22° C | 64% | 1014.8 hPa | 0 mm | - | 111 W/m² | - |
| 1777666554 | 7.22° C | 64% | 1014.7 hPa | 0 mm | - | 111 W/m² | - |
| 1777666251 | 7.22° C | 63% | 1014.9 hPa | 0 mm | - | 121 W/m² | - |
| 1777665948 | 7.22° C | 63% | 1014.6 hPa | 0 mm | - | 154 W/m² | - |
| 1777665645 | 7.22° C | 63% | 1014.7 hPa | 0 mm | - | 216 W/m² | - |
| 1777665343 | 7.22° C | 64% | 1014.8 hPa | 0 mm | - | 131 W/m² | - |
| 1777665038 | 7.78° C | 63% | 1014.6 hPa | 0 mm | - | 119 W/m² | - |
| 1777664734 | 7.78° C | 63% | 1014.7 hPa | 0 mm | - | 193 W/m² | - |
| 1777664430 | 7.22° C | 65% | 1014.7 hPa | 0 mm | - | 240 W/m² | - |
* Rain latest hour (hover to see other rain measurements)
** Current wind speed in m/s (hover to see current wind gust speed)